Theta_e
305 304 304 304 304 303 303 302 301 301 301 302 302 305 310 312 312 311 310 311 310 308 309 310 310 309 309 309 308 309 309 308 308 308 308 308 308 308 308 308 308 308 308 308 309 309 309 310 312 313 314 315 314 314 315 314 314 315 317 320 323 326 328 325 322 325 328 329 330 330 330 331 328 327 329 327 324 323 323 327 329 323 319 321 320 319 333
305 304 304 304 304 303 302 302 302 301 301 301 302 305 310 311 312 312 310 310 310 308 309 309 308 308 309 308 308 308 309 308 308 308 307 308 308 307 307 307 308 308 308 308 308 308 310 311 312 314 314 314 313 314 314 314 313 314 316 320 322 323 327 329 326 324 325 327 328 327 328 329 327 328 329 327 329 326 325 330 331 325 321 322 320 320 333
305 304 304 304 304 303 302 302 302 301 300 301 301 305 310 311 311 311 310 309 310 309 309 309 309 308 308 307 307 308 308 309 309 308 307 308 308 308 308 308 308 308 308 308 308 308 310 312 313 313 313 313 313 313 313 313 313 315 318 320 321 322 325 330 330 327 325 327 327 324 325 327 327 328 328 328 329 326 325 326 325 326 327 324 321 323 332
305 304 304 304 303 303 302 302 302 301 301 300 300 304 310 311 309 309 309 309 310 309 310 310 309 309 308 308 308 307 308 309 309 308 308 308 309 308 309 309 308 307 308 308 308 308 310 312 313 312 312 312 312 313 313 312 312 316 318 317 318 322 325 329 333 333 330 333 337 334 327 326 324 326 326 327 328 327 327 324 323 332 333 326 330 335 332
304 304 303 303 302 302 301 302 302 301 301 300 300 304 309 309 308 308 308 309 310 309 310 309 309 309 309 309 308 307 308 308 309 309 308 308 308 308 309 309 307 307 308 308 308 309 310 311 312 312 312 312 311 312 313 312 313 316 316 314 316 322 325 327 331 333 332 334 338 336 329 326 323 325 325 326 327 328 326 321 328 343 333 323 337 347 335
302 302 302 302 302 301 301 302 301 301 301 300 301 306 309 308 308 308 308 308 309 309 309 309 309 309 309 308 308 307 307 308 309 308 308 308 308 308 309 309 308 308 308 308 308 309 310 311 311 311 311 311 311 312 312 312 313 314 313 312 315 320 324 325 326 328 329 331 332 332 332 330 327 327 326 325 326 326 324 323 333 345 335 329 345 350 339
301 301 301 301 301 301 301 301 301 301 300 299 303 307 309 307 307 308 307 307 308 307 308 309 309 309 309 309 308 308 307 308 308 308 308 308 308 308 309 308 308 308 308 308 309 310 310 311 311 311 311 311 311 311 312 313 314 313 312 312 313 317 323 324 323 326 329 331 332 332 331 331 330 329 327 328 327 325 326 327 332 341 339 340 352 352 344
301 301 301 301 301 301 301 301 301 301 301 302 304 307 308 307 308 308 307 306 306 307 308 309 309 309 309 309 308 307 307 307 307 307 307 308 308 308 308 308 308 308 308 309 309 309 310 311 311 311 311 311 311 311 312 313 313 311 311 311 312 315 319 320 321 326 332 333 332 332 331 330 330 330 330 331 329 326 326 327 329 336 337 339 348 348 341
301 301 301 301 301 301 301 301 302 303 304 305 306 306 306 307 307 307 306 305 306 307 308 309 308 309 309 309 308 308 308 308 307 307 307 308 308 308 307 308 308 308 308 309 309 309 309 309 310 310 310 310 311 311 311 311 311 311 311 311 312 314 316 317 320 328 336 335 331 330 329 328 328 329 331 332 329 326 325 326 328 334 336 337 340 338 337
301 301 301 301 301 302 302 303 304 304 305 306 306 306 306 306 306 306 305 305 306 307 308 308 308 309 309 309 309 308 308 308 308 308 308 308 308 308 308 309 309 308 308 309 309 309 308 308 309 309 309 309 309 309 310 310 310 311 311 312 313 313 315 317 318 325 332 330 327 328 328 327 329 330 331 332 332 331 327 326 329 334 338 340 339 338 341
303 303 304 304 305 305 305 306 306 306 306 306 306 306 306 306 306 306 305 305 306 307 308 308 308 309 309 308 309 308 308 308 308 308 308 308 307 308 308 309 309 309 308 308 308 308 308 308 308 308 308 309 309 309 309 309 310 311 311 312 312 313 315 316 318 323 325 324 327 331 328 326 331 333 333 332 332 331 330 329 329 329 333 340 342 344 343
307 307 307 307 307 307 307 306 306 306 306 307 307 307 306 306 306 306 305 304 306 306 307 307 307 308 308 308 308 308 308 308 308 308 308 308 307 308 308 308 309 309 308 308 308 308 308 308 308 309 309 309 310 310 309 309 310 311 312 312 312 313 314 315 318 322 323 326 332 333 328 329 333 333 333 333 331 330 332 336 340 339 338 339 339 341 342
309 309 308 308 308 308 307 307 306 307 307 308 307 307 307 307 307 306 305 304 305 306 306 306 307 307 308 308 308 308 308 308 308 308 308 308 308 309 308 308 309 309 308 308 308 308 309 309 309 310 310 311 311 311 310 310 310 311 312 312 312 312 314 316 318 321 325 330 333 331 329 332 333 333 332 331 333 333 334 338 340 341 341 342 340 338 340
310 309 309 309 308 308 307 307 307 307 307 307 308 308 308 307 307 307 305 304 304 305 306 306 306 307 307 308 308 308 308 308 308 308 308 308 308 308 308 308 308 308 308 308 308 309 310 309 310 311 312 313 313 312 312 311 311 311 311 312 312 312 314 316 318 321 325 326 327 326 328 332 333 332 330 328 330 333 335 339 339 340 340 343 343 339 337
311 310 310 309 309 308 308 307 307 307 307 308 308 308 308 308 308 308 307 305 304 304 305 306 306 306 307 308 308 308 308 308 308 308 308 308 308 308 309 308 307 308 308 308 309 310 310 310 310 311 313 314 313 313 313 312 311 311 311 312 312 312 314 316 319 321 322 325 327 326 327 331 330 327 327 328 329 330 334 341 340 339 339 343 344 343 341
311 311 310 310 309 309 308 307 307 307 308 308 308 308 309 309 308 308 308 306 305 304 306 306 306 307 307 308 308 308 308 308 308 308 308 308 308 309 309 308 308 308 308 308 309 310 310 310 311 311 312 313 313 313 313 313 312 312 311 312 312 312 314 316 318 319 320 326 330 328 327 330 329 325 326 329 331 332 334 343 341 338 339 342 344 343 344
311 310 309 309 309 308 308 307 307 308 308 308 308 308 309 308 308 308 308 307 306 305 306 306 306 306 307 307 307 308 308 308 308 308 308 308 308 308 309 308 309 309 308 309 310 310 310 310 311 311 311 312 312 313 314 314 314 314 314 312 312 313 315 315 316 319 321 324 327 327 327 328 325 324 327 329 330 331 338 347 342 337 337 341 342 342 343
309 308 308 308 308 308 307 307 307 307 307 307 308 308 308 308 308 308 308 308 307 306 306 306 306 306 306 306 307 307 308 308 308 308 308 308 308 309 309 309 309 309 309 310 310 310 310 311 311 311 311 312 312 313 314 314 315 315 315 314 314 316 318 317 316 316 319 321 323 324 327 326 322 323 327 328 330 337 345 345 340 335 336 339 339 340 342
307 307 307 308 309 309 308 308 307 307 307 307 308 308 308 308 308 308 308 308 308 307 307 307 307 307 307 307 307 307 308 308 308 308 308 308 308 309 309 308 308 309 309 310 311 310 310 311 312 311 311 312 312 312 313 314 314 314 316 315 316 317 318 317 316 315 317 320 321 324 328 327 322 324 326 326 334 342 342 338 334 332 335 338 336 338 340
306 307 308 309 310 310 308 308 308 308 308 308 308 308 309 309 308 308 308 308 308 308 308 307 307 307 307 307 307 308 308 308 308 308 308 308 308 308 309 309 309 309 309 310 310 310 310 310 312 312 312 312 312 312 313 313 314 314 315 316 317 317 317 317 316 316 317 318 320 327 331 326 321 323 326 327 332 336 334 331 330 330 332 334 334 335 337
308 309 310 310 310 309 308 308 308 308 308 308 308 309 309 309 309 309 308 308 308 308 308 307 307 307 307 307 307 307 307 307 307 308 308 308 308 308 308 309 308 308 309 309 309 310 310 310 311 312 313 313 313 313 313 313 314 313 313 316 317 317 319 320 319 317 319 321 324 329 330 323 319 323 325 324 326 329 329 328 329 328 327 329 331 331 332
310 310 311 311 311 310 309 308 308 308 308 308 308 309 309 309 309 309 309 308 308 308 308 308 308 307 307 307 307 307 307 307 307 308 308 308 308 308 308 309 308 308 308 309 309 310 310 310 310 312 312 312 312 313 312 313 314 313 313 315 316 316 320 322 320 319 321 322 323 323 322 320 319 321 321 321 321 323 326 327 326 325 326 327 328 328 329
311 311 312 312 312 311 310 309 308 308 308 308 308 308 308 309 309 309 309 309 308 308 308 308 308 308 308 308 308 308 308 308 308 308 308 308 309 308 308 309 309 308 308 309 309 310 310 310 310 311 311 311 312 312 312 312 313 313 312 314 315 315 316 318 317 318 319 319 319 319 319 318 318 318 319 319 319 321 324 325 324 323 324 325 325 326 327
312 313 313 313 313 312 311 310 310 309 309 309 308 308 309 309 309 309 309 309 308 308 308 308 308 308 309 309 309 309 309 308 308 308 308 308 309 309 308 309 309 308 309 309 309 309 309 310 310 310 311 311 312 312 312 313 314 314 312 313 314 314 315 315 316 316 317 318 319 319 318 316 316 316 317 317 318 321 322 323 322 322 323 323 324 324 325
313 313 313 313 313 312 312 312 312 311 311 310 310 310 309 310 310 310 309 309 309 308 308 308 309 309 309 309 309 309 309 309 308 308 308 308 308 308 309 308 308 308 309 309 309 309 310 310 310 310 311 311 311 312 312 313 313 313 312 313 314 314 314 315 315 316 316 317 317 316 316 316 316 316 316 317 318 321 321 321 321 322 322 322 322 322 324
313 313 313 313 313 313 313 313 313 312 312 311 311 310 310 310 310 310 310 309 309 308 308 308 309 309 309 309 309 309 309 308 308 308 308 308 308 308 308 308 308 308 308 308 308 309 310 310 310 311 311 311 311 311 312 312 312 313 313 313 313 313 314 315 315 315 315 316 316 316 316 317 316 316 316 317 317 318 319 319 320 321 321 321 321 321 322
313 313 313 313 313 314 314 313 313 312 312 312 311 311 311 311 311 310 310 309 309 308 308 308 309 310 310 310 310 309 309 309 308 308 307 307 307 308 308 308 308 308 308 308 309 309 310 310 310 311 311 311 311 311 311 312 312 312 312 313 312 313 314 315 314 314 315 316 316 316 316 315 315 315 316 315 316 316 317 318 318 319 320 321 320 320 320
313 313 313 314 314 314 314 313 313 313 313 312 312 312 313 312 311 310 310 310 309 309 309 309 309 310 310 310 310 309 309 309 308 308 307 307 307 308 308 308 308 308 308 309 309 309 310 310 310 310 311 310 310 311 311 311 312 312 313 313 314 314 314 314 314 314 315 315 315 315 315 315 315 315 315 315 315 315 316 317 317 318 319 319 320 320 319
313 314 314 314 314 314 314 313 313 313 314 313 313 313 313 312 312 311 310 310 309 308 309 309 309 310 310 310 310 310 309 309 309 308 308 308 308 308 308 308 309 309 309 309 309 310 310 310 309 310 310 310 310 311 311 311 311 312 313 314 314 313 313 313 313 314 314 314 314 314 314 315 315 315 315 315 314 314 315 316 317 318 318 318 318 318 318
314 314 315 315 314 314 314 313 313 313 313 313 315 315 314 313 313 311 310 309 309 308 309 309 309 310 311 311 310 311 310 309 309 309 309 309 309 309 309 309 309 309 309 309 310 310 310 310 310 310 310 310 310 310 310 310 311 311 311 312 313 312 312 311 311 312 312 312 313 313 313 314 314 314 314 314 315 315 315 315 316 316 316 316 317 318 319
314 315 315 315 315 315 315 314 313 313 313 313 314 315 315 314 313 311 309 309 309 308 309 310 310 311 311 311 311 311 311 311 310 310 310 310 309 309 309 309 309 309 309 309 309 309 309 310 310 310 310 310 310 309 310 310 310 310 311 312 312 311 311 310 310 310 310 310 311 311 311 312 312 313 314 314 315 315 315 315 315 316 316 316 317 317 318
315 316 316 315 315 316 316 316 315 315 315 313 313 313 313 312 311 310 309 309 309 309 310 310 311 311 311 311 311 311 311 311 311 311 310 310 310 310 310 309 309 309 309 309 309 309 309 309 309 309 309 309 309 309 310 310 310 311 311 311 310 309 309 309 309 309 309 309 310 310 311 311 311 312 313 313 314 315 315 315 315 315 315 315 316 315 317
316 317 317 316 315 315 315 316 317 317 317 316 315 314 312 311 310 309 309 309 309 309 310 310 311 311 311 311 312 312 311 311 311 310 311 311 310 310 310 309 309 309 308 308 308 308 308 308 309 309 309 309 309 309 309 310 310 311 310 309 308 308 308 308 308 308 308 309 309 310 310 311 311 312 312 313 313 315 315 315 316 315 315 315 314 315 316
317 318 318 318 317 316 315 316 317 317 317 317 317 316 314 313 311 310 309 309 310 310 310 310 311 311 311 312 313 313 312 312 312 312 312 312 311 310 309 309 308 308 308 308 308 308 308 308 308 308 309 309 309 309 309 310 309 308 307 307 307 307 307 307 307 308 309 310 310 310 311 311 311 312 312 312 312 313 314 315 316 316 316 315 315 316 316
319 320 319 319 319 319 318 316 316 317 318 318 317 316 315 314 312 311 310 310 311 311 311 311 311 311 312 314 315 313 313 313 313 313 312 312 310 309 309 309 309 308 308 307 307 307 308 307 308 308 308 308 309 309 309 308 307 306 305 305 306 306 307 308 309 310 311 312 312 311 311 312 312 313 313 313 313 312 313 314 315 316 316 316 316 316 316
321 321 321 320 320 320 320 318 317 317 318 319 317 316 316 315 313 312 311 311 311 312 312 311 312 313 313 313 314 313 313 314 313 313 313 313 312 310 310 310 310 309 308 308 309 309 308 308 308 308 308 308 309 308 306 305 304 304 304 305 307 308 309 310 311 313 314 314 314 313 313 313 313 314 314 314 314 313 313 314 315 315 316 316 316 316 316
321 321 321 321 321 321 321 320 319 317 317 318 317 316 316 315 314 313 313 312 312 312 312 312 313 313 313 313 314 313 314 315 315 314 314 314 313 311 311 312 312 311 310 310 310 310 309 308 308 308 308 308 307 307 306 306 306 306 306 307 308 309 310 311 312 314 316 317 317 316 315 315 315 314 315 315 315 315 314 314 315 316 316 316 316 316 316
321 322 321 320 321 322 322 321 319 317 317 318 317 317 316 315 314 315 315 313 313 313 314 314 315 314 314 315 314 314 315 316 316 315 314 314 314 314 313 312 312 312 312 311 311 310 310 310 309 308 308 308 308 308 308 309 310 310 310 309 308 309 309 311 312 313 315 318 319 318 318 317 316 316 315 315 316 316 316 315 315 316 316 316 316 317 316
321 322 322 321 322 322 321 319 319 319 319 319 318 318 318 317 316 317 317 315 316 316 316 316 317 316 316 317 315 314 315 316 316 315 314 314 315 316 315 314 313 313 312 312 312 312 311 311 310 309 309 309 310 309 309 309 310 311 311 310 309 308 309 309 310 311 313 315 318 320 320 319 318 317 316 316 317 317 316 316 316 316 316 317 317 317 317
320 321 321 321 321 321 320 320 320 320 320 320 320 320 320 319 319 319 318 318 319 319 318 318 318 316 316 317 317 316 315 315 315 316 315 315 315 316 316 315 314 313 312 312 312 312 311 311 310 310 310 311 311 310 309 310 310 311 311 310 309 309 308 308 309 310 311 313 315 318 320 321 320 319 318 318 318 317 317 317 316 316 317 317 317 317 317
319 318 319 319 318 318 319 320 320 320 321 322 322 321 321 321 320 320 319 320 320 319 318 318 319 318 317 317 318 318 316 315 315 316 316 315 314 314 316 315 314 313 312 311 311 312 312 311 310 310 310 311 311 310 309 310 310 310 310 310 309 309 308 308 308 308 310 311 312 314 316 319 320 320 320 319 319 318 317 317 317 317 317 317 317 318 318
318 318 318 318 318 318 319 320 321 321 322 322 320 320 321 321 320 320 320 320 319 319 319 319 319 318 317 316 317 318 317 317 316 317 317 317 315 315 315 315 314 313 312 312 311 311 311 311 310 310 310 311 310 309 310 310 310 310 310 310 309 309 308 307 307 307 308 309 310 311 313 316 318 320 321 320 319 319 318 317 317 318 318 318 318 318 318
319 318 319 319 320 321 321 321 319 319 320 318 317 317 319 319 319 320 320 319 317 318 319 319 319 318 317 316 317 317 317 317 317 318 318 317 316 315 315 315 314 312 312 312 312 311 311 310 310 310 310 310 309 309 309 310 310 310 310 310 310 309 308 307 307 307 307 308 309 310 311 312 314 317 320 321 320 319 319 318 318 318 318 318 318 318 318
319 319 319 319 319 319 320 318 316 316 317 317 316 317 318 318 319 320 320 319 318 318 318 318 319 319 318 317 316 317 318 318 317 317 318 317 315 314 314 313 313 312 312 312 312 311 310 310 310 310 310 310 310 309 308 309 310 310 310 309 309 309 308 307 307 307 306 307 307 308 309 310 312 314 316 318 319 320 321 320 320 319 319 319 319 319 318
320 319 318 317 316 315 316 316 315 314 316 316 316 317 317 318 318 319 319 319 319 320 319 318 319 319 318 317 316 317 318 318 317 317 316 315 314 313 312 312 312 312 312 311 311 311 311 310 310 310 310 310 310 309 308 308 309 310 310 309 309 309 308 307 307 306 306 306 306 307 307 308 309 310 312 313 315 318 320 321 321 321 321 321 321 321 321
319 318 316 316 316 315 315 316 316 315 315 316 316 316 316 317 317 317 316 317 317 318 318 319 319 319 318 318 317 317 317 317 317 316 314 313 314 313 312 312 312 312 312 312 311 311 311 311 310 310 310 310 309 309 308 307 307 309 310 309 309 309 308 307 306 306 306 306 306 306 306 306 307 308 309 310 311 314 316 317 319 320 320 320 320 321 321
316 315 315 316 317 316 315 315 316 315 315 315 314 314 314 315 315 315 315 315 315 316 316 317 318 319 318 317 318 318 317 316 315 315 314 313 314 313 312 312 312 312 312 312 311 311 311 311 310 310 310 309 309 309 308 307 306 307 309 309 309 309 308 308 307 306 306 306 305 305 305 305 305 306 307 308 308 310 311 312 314 315 315 315 315 316 316
315 314 314 316 317 316 316 315 315 315 314 314 314 313 313 314 314 314 314 314 314 315 316 315 317 318 317 316 317 318 318 316 315 315 314 314 314 313 312 312 312 312 312 312 311 311 311 311 310 309 309 308 308 308 308 307 306 306 307 309 309 309 308 308 308 307 306 305 305 304 305 305 305 305 305 306 306 307 307 308 309 310 311 311 311 311 312
314 313 314 315 316 315 314 314 315 314 314 314 314 313 313 314 314 313 313 313 314 315 315 315 315 316 315 314 314 316 316 315 315 315 314 314 314 313 312 312 312 312 312 312 311 311 310 310 309 309 309 308 307 308 307 306 306 306 306 307 308 309 308 307 307 308 308 307 305 304 304 304 304 304 304 304 304 305 305 306 307 307 307 308 308 308 308
315 314 314 315 315 314 314 314 314 314 314 314 314 313 313 314 314 313 312 313 314 314 314 314 314 313 313 314 314 314 315 315 315 314 314 314 313 313 313 312 312 312 312 312 311 310 310 309 309 309 308 308 307 308 307 306 305 305 306 306 307 308 308 307 307 307 307 307 307 305 304 304 304 304 304 304 304 304 304 305 305 305 305 305 306 306 306
315 315 315 315 315 314 314 314 314 314 314 314 314 313 313 313 313 313 312 313 313 313 314 314 314 313 313 313 313 313 314 314 313 313 313 313 313 312 312 312 312 312 312 311 310 310 310 309 309 308 308 308 307 307 307 306 304 304 305 306 306 306 307 308 307 307 306 306 306 306 305 305 305 304 304 304 304 303 303 303 303 303 303 304 304 304 304
315 315 315 315 314 314 314 314 313 313 314 314 313 313 313 313 313 312 312 312 313 313 313 313 313 313 312 312 312 312 313 313 312 312 312 312 312 312 312 312 311 311 311 311 310 310 309 309 308 308 308 307 307 307 306 305 305 304 304 305 306 305 306 307 308 307 306 306 306 306 305 305 305 305 305 305 304 304 304 304 303 303 303 303 303 303 303
Wind_Speed
25 26 27 29 30 31 31 31 31 33 34 35 37 31 21 17 18 17 24 31 29 17 6 4 5 3 7 11 12 14 13 10 9 11 12 10 8 8 8 9 10 9 9 10 10 9 8 8 9 11 12 11 13 23 29 29 24 16 9 11 15 10 4 5 7 7 8 8 12 17 17 15 12 11 9 7 10 10 6 4 5 5 5 6 3 3 5
25 26 26 28 29 30 31 31 30 30 31 32 34 27 17 19 23 20 23 28 26 13 5 6 5 4 8 9 9 13 13 12 11 10 10 9 6 6 7 9 10 10 10 11 10 10 7 5 9 11 8 12 22 28 27 25 20 12 11 13 13 10 4 3 3 5 6 6 7 13 15 14 9 10 12 10 10 14 9 4 4 5 6 7 3 3 5
25 26 26 27 28 30 31 30 29 28 28 28 29 24 19 18 15 14 22 28 24 13 10 11 8 7 11 9 8 10 10 13 14 12 12 10 7 7 8 10 12 11 10 10 9 9 6 4 7 7 7 12 20 24 27 27 20 18 26 29 18 9 5 3 3 4 4 4 5 8 11 11 7 9 15 14 12 15 12 5 3 4 7 8 5 3 5
25 26 27 27 28 29 30 30 29 28 27 26 25 21 17 13 8 9 17 23 21 17 20 20 12 8 11 11 9 8 7 11 14 12 10 9 9 9 9 11 12 10 10 11 10 8 6 5 7 7 9 9 12 23 29 28 26 26 35 38 19 5 5 5 5 5 4 5 5 7 13 13 9 11 15 17 16 13 11 7 4 5 6 6 6 5 4
25 26 27 27 27 28 28 29 28 28 27 26 22 18 13 9 6 8 11 13 13 14 19 20 14 13 14 9 8 10 9 8 10 10 9 10 11 9 7 9 10 10 12 12 9 9 8 7 8 9 9 8 12 25 28 23 25 26 29 32 18 3 5 7 6 7 8 10 12 5 11 16 16 15 13 17 20 16 10 9 7 6 7 5 7 8 6
25 26 27 27 27 27 27 26 27 27 28 24 18 12 10 7 6 10 11 8 7 9 13 16 15 17 16 10 9 12 10 8 9 8 9 12 11 7 5 8 10 11 13 11 8 9 8 7 8 7 8 10 11 18 22 20 19 19 21 24 16 3 4 7 8 11 11 12 14 10 4 6 12 17 16 15 21 21 14 10 9 8 8 5 8 10 8
26 26 27 27 26 26 26 26 26 27 27 23 14 8 9 9 7 9 10 9 11 13 16 18 16 15 13 9 10 11 9 8 9 8 7 9 9 8 7 9 11 12 13 10 6 7 7 7 8 7 7 10 8 9 15 16 16 16 15 17 14 6 5 12 13 12 11 10 11 12 7 2 2 11 15 11 16 23 18 10 9 9 7 8 10 10 5
26 26 26 26 26 25 25 26 26 26 24 19 12 7 9 10 8 8 10 11 14 15 14 14 11 10 11 8 8 11 12 11 11 10 10 9 8 9 10 11 12 12 11 10 7 6 6 7 8 9 8 7 6 4 5 9 16 17 12 12 15 11 8 15 15 8 5 7 11 14 8 1 2 3 7 4 7 19 19 13 10 8 7 7 9 10 3
25 26 26 26 26 26 26 26 25 23 19 15 11 8 8 9 10 11 11 8 9 9 10 10 7 6 7 7 8 11 13 15 15 13 12 12 9 9 11 11 10 10 10 10 8 8 9 10 10 12 10 7 7 6 6 9 14 15 12 11 13 11 8 11 11 5 3 3 8 13 9 5 6 4 2 3 3 9 16 13 9 6 8 8 9 10 4
26 26 27 28 28 27 26 25 23 20 15 13 12 10 9 11 14 14 11 6 5 6 7 7 6 5 5 7 10 12 15 17 16 11 9 12 13 13 12 11 8 7 9 11 11 13 15 16 16 15 14 13 13 14 16 15 12 11 12 11 10 10 9 8 8 6 4 4 7 10 8 6 7 3 0 2 4 4 10 14 12 6 7 7 6 6 7
27 27 28 28 28 27 26 23 21 18 14 13 13 14 14 14 16 15 10 5 5 6 5 4 5 5 9 13 14 13 16 16 14 9 7 12 17 17 15 13 8 4 8 14 17 18 19 20 20 20 19 19 19 19 20 19 16 14 11 9 10 11 9 6 5 4 5 8 8 5 4 4 3 1 1 2 6 6 3 5 10 7 4 6 9 6 4
29 29 29 28 27 26 24 22 20 17 15 14 14 15 15 14 15 14 8 4 5 5 4 5 8 10 14 18 16 15 16 16 17 16 12 13 19 19 15 12 7 6 12 19 21 20 19 18 18 18 18 19 19 20 20 17 17 18 16 11 11 11 9 6 4 3 5 7 5 2 1 5 2 3 4 7 8 5 9 14 10 8 7 3 14 13 6
30 29 29 27 26 24 22 21 19 16 14 14 15 16 15 14 15 15 10 6 5 5 6 9 14 16 17 18 16 17 18 19 22 21 14 11 16 18 14 9 9 14 20 23 21 17 12 10 10 10 12 13 12 15 18 16 16 18 18 15 12 10 7 5 4 4 4 3 1 2 3 6 1 6 10 14 11 6 6 15 17 18 18 11 6 13 12
30 29 28 26 25 24 22 20 18 15 14 15 16 17 16 15 16 16 12 7 4 6 8 8 10 13 15 16 15 15 16 18 19 18 14 12 13 14 14 12 15 22 25 21 15 9 5 5 6 6 7 7 5 8 12 14 15 17 18 15 13 10 6 3 4 4 3 4 3 3 3 5 2 7 11 12 11 8 3 9 11 18 20 18 10 4 12
29 28 27 26 25 23 21 20 19 16 14 15 16 17 16 16 17 17 15 10 5 6 8 9 10 12 13 15 14 11 10 11 11 13 15 14 12 13 16 17 18 21 21 15 8 3 3 4 4 4 5 4 3 4 6 8 11 16 18 15 13 11 6 3 3 2 3 4 3 2 2 2 4 11 17 16 17 12 4 12 10 17 20 21 16 8 9
29 28 27 26 24 23 20 19 18 17 14 15 16 17 16 16 16 17 17 14 7 3 5 8 12 13 12 14 14 11 7 5 6 8 8 10 13 15 18 20 19 17 16 11 4 2 3 3 3 4 5 6 6 5 3 3 4 10 16 16 13 12 8 3 3 3 4 3 2 3 2 1 8 17 19 22 26 17 3 11 8 12 18 23 20 15 14
28 27 26 24 23 21 20 18 17 16 15 14 16 17 16 16 16 16 17 16 12 10 13 15 17 15 11 10 11 10 7 6 7 4 3 8 14 15 19 22 20 17 15 9 3 2 3 2 3 4 3 6 8 6 5 6 5 3 6 11 10 9 5 3 3 3 4 3 2 3 0 3 13 17 18 27 30 15 3 8 5 10 17 23 22 19 19
27 25 24 23 22 20 20 18 17 16 15 13 15 17 17 16 16 14 16 17 13 11 14 14 14 14 11 9 11 11 9 9 7 4 4 8 9 12 19 19 14 13 14 8 2 2 3 2 2 3 3 6 7 5 5 5 4 5 3 1 3 3 2 2 2 2 4 3 3 2 1 4 13 16 22 31 24 7 7 6 4 11 14 21 24 22 23
24 23 23 23 23 21 20 19 17 16 15 13 14 17 16 15 14 12 14 17 14 11 14 13 12 15 15 13 14 14 12 10 8 4 3 4 7 16 19 12 6 9 11 6 2 2 2 2 2 2 2 4 5 5 5 6 5 5 5 3 1 0 1 1 1 2 3 2 3 3 0 7 17 20 25 28 14 3 4 3 6 11 14 21 24 24 25
23 23 24 24 24 22 20 19 18 16 15 13 13 16 16 14 14 13 13 16 16 18 21 19 16 17 17 16 17 17 14 12 9 5 3 4 11 18 12 4 6 10 7 4 3 2 2 3 3 2 1 3 4 3 4 6 6 6 7 4 3 3 2 2 2 2 2 1 3 3 1 9 21 20 17 17 9 2 1 4 10 17 20 21 23 25 27
24 25 26 26 25 23 20 19 17 16 14 12 11 15 16 14 12 11 11 12 14 15 13 9 8 13 15 16 17 18 17 15 13 10 9 11 12 10 4 3 8 7 2 3 4 2 3 3 2 1 2 3 2 3 6 6 5 8 9 5 4 5 3 1 2 4 3 2 3 3 2 8 15 14 9 10 11 7 7 8 12 18 21 22 23 25 27
26 27 27 27 25 23 20 18 17 15 13 11 10 13 15 14 11 9 8 9 13 15 14 13 14 16 17 17 17 17 16 16 15 13 12 14 13 10 8 7 6 3 1 2 2 1 3 3 2 3 3 3 2 4 6 4 3 8 9 5 3 5 3 1 1 1 1 1 3 3 7 10 11 12 9 12 18 16 14 15 15 17 20 22 22 24 26
27 27 27 27 25 23 20 18 16 14 12 11 11 12 14 14 12 10 8 8 11 15 17 17 16 14 13 13 13 12 13 13 14 14 13 12 12 11 9 6 4 3 3 3 2 3 4 3 4 4 4 4 5 5 4 4 2 5 8 5 4 7 8 4 2 1 2 3 7 5 6 13 15 13 11 13 15 14 15 17 16 16 17 19 20 22 23
28 28 28 27 25 22 18 16 14 13 12 10 10 10 11 10 9 8 7 7 9 10 11 10 10 10 10 10 9 7 8 10 12 12 11 10 8 8 7 6 7 8 8 10 10 9 7 5 4 4 3 5 6 4 4 5 2 4 7 6 4 7 11 8 5 3 4 3 3 5 11 15 15 13 13 12 11 10 13 14 14 13 15 16 17 19 20
29 29 28 25 22 18 15 13 12 11 10 8 6 5 4 3 3 5 5 5 6 5 4 5 8 8 8 8 8 6 6 7 7 7 8 9 9 9 8 9 10 10 12 14 15 12 8 5 3 3 4 6 7 5 5 5 4 5 6 4 4 7 11 8 4 5 4 4 7 13 17 16 13 13 13 12 10 10 10 11 12 11 12 12 14 16 18
29 28 25 20 15 13 13 13 11 10 10 8 4 2 3 3 1 3 4 5 5 4 3 4 7 8 7 7 7 6 6 6 6 7 8 8 8 9 9 11 11 11 13 14 13 12 9 5 3 3 3 5 7 5 4 4 6 5 4 5 9 10 9 5 4 5 5 4 6 12 13 11 13 16 17 18 19 14 10 10 10 11 12 12 11 13 14
28 24 19 14 13 13 13 12 11 10 9 7 6 5 5 4 1 2 3 4 3 2 1 3 7 9 9 8 6 5 5 6 5 5 6 6 6 7 8 9 10 12 13 12 11 11 8 5 4 4 4 7 9 6 5 7 7 4 4 7 11 9 6 5 5 5 5 5 9 14 11 7 14 20 21 22 24 20 14 12 11 11 12 12 11 11 12
24 19 15 13 13 13 12 11 10 9 8 7 5 5 6 5 2 2 1 3 5 3 4 7 10 10 9 6 4 2 2 3 3 4 4 5 6 7 7 9 10 11 11 10 9 8 5 4 7 6 6 9 8 6 7 9 6 3 3 5 8 9 8 8 7 5 7 11 19 23 16 10 15 24 26 24 24 23 20 17 14 11 11 12 11 12 14
20 15 13 13 13 11 11 10 9 9 8 6 4 3 4 3 3 4 3 2 5 5 6 9 9 6 6 6 5 3 2 0 2 3 3 4 5 6 6 7 8 9 10 9 7 6 5 7 9 8 8 11 8 5 6 7 4 4 7 11 16 17 18 17 14 11 13 19 26 29 25 21 24 28 28 26 25 25 24 20 15 13 13 13 13 13 15
15 12 12 12 11 11 10 9 9 9 9 8 6 2 0 1 4 6 4 1 3 3 3 4 5 5 5 6 6 5 3 1 2 3 3 4 4 4 5 6 6 7 8 7 6 6 7 8 9 9 12 14 9 3 4 6 5 6 11 17 23 27 30 29 24 20 20 25 30 30 30 33 35 31 26 25 24 24 24 23 20 17 15 15 15 14 12
12 11 12 11 9 10 11 10 9 11 13 13 9 4 2 2 4 6 5 2 1 1 2 4 6 6 4 5 7 7 5 3 3 3 3 3 3 3 4 5 5 6 7 6 7 8 7 6 7 9 11 13 8 3 4 6 6 7 12 20 26 29 31 33 33 31 29 30 32 33 36 40 38 31 27 26 23 22 24 24 22 19 16 14 14 13 11
9 9 10 10 10 10 11 11 11 12 13 14 11 7 6 5 5 5 4 1 2 2 3 4 4 4 2 3 4 6 6 4 3 3 4 6 5 4 3 3 3 4 6 6 6 6 6 6 7 8 9 11 8 4 4 5 6 8 15 23 29 32 33 35 37 38 37 34 29 26 31 38 35 28 26 27 25 24 25 26 26 24 22 20 18 16 15
7 7 8 10 12 12 12 12 12 12 13 13 12 12 12 10 7 4 0 2 4 3 2 3 2 2 1 2 4 7 8 6 4 3 4 6 5 2 1 2 3 4 6 5 3 3 6 7 7 8 10 10 7 3 3 4 7 14 24 30 34 37 40 41 41 40 38 36 28 23 28 36 36 31 30 32 31 27 26 27 27 26 25 24 22 19 16
6 7 6 8 10 12 13 13 11 11 11 8 8 11 13 12 10 5 3 5 4 2 1 1 2 2 2 1 2 6 8 6 5 4 3 4 5 3 2 3 4 4 5 5 3 3 6 6 6 6 8 8 6 3 3 6 14 26 34 37 38 41 42 44 44 43 41 37 33 33 36 38 36 33 34 36 36 32 28 27 27 26 25 23 22 20 18
7 8 7 7 9 10 11 10 9 9 7 4 6 10 11 9 8 6 5 5 2 0 1 1 1 2 3 1 1 5 7 5 4 4 4 4 6 6 4 3 3 2 3 4 4 3 4 4 4 4 5 5 4 2 2 9 21 31 36 38 40 41 40 40 43 45 43 38 35 36 36 34 31 32 34 37 37 35 32 31 29 28 26 25 23 22 21
8 9 9 8 9 9 9 10 10 8 6 5 8 10 9 6 5 5 6 6 4 2 1 1 1 1 3 2 1 4 6 3 3 3 4 4 4 5 4 3 2 1 1 2 1 1 3 3 3 2 2 3 3 5 10 19 25 29 31 34 36 37 37 38 40 40 35 31 31 32 32 31 31 32 32 33 35 35 34 33 31 29 28 27 25 23 24
9 9 8 9 9 9 8 8 10 10 9 9 10 10 6 3 3 4 5 6 6 3 1 1 1 1 2 2 2 3 4 1 2 1 2 2 2 2 3 2 1 1 1 0 1 1 2 2 2 1 1 3 7 13 21 27 25 22 22 28 32 35 38 37 36 33 24 18 22 25 27 29 31 32 31 30 31 32 32 33 32 30 29 28 26 24 24
9 7 7 7 8 8 5 5 10 13 14 12 10 7 3 2 2 3 3 2 2 2 2 1 0 2 4 3 0 2 2 0 2 1 1 2 2 2 2 1 1 1 1 1 1 2 1 1 0 1 2 5 11 19 28 33 26 18 19 28 35 39 41 39 36 34 26 15 13 17 22 25 28 30 31 30 29 30 31 33 33 31 30 29 27 25 24
9 9 8 6 6 7 8 9 13 17 17 12 7 3 2 2 1 1 1 1 2 2 2 1 1 3 4 2 3 3 2 1 0 1 1 1 1 1 1 1 1 1 0 1 1 1 1 1 1 1 2 5 13 23 31 35 32 26 25 31 37 41 44 44 41 39 33 25 17 11 15 24 28 30 30 29 28 28 29 31 32 31 29 28 26 25 24
9 10 9 5 5 10 13 15 17 18 14 8 3 0 1 0 1 1 2 1 2 2 1 1 2 2 3 2 2 2 2 2 1 1 1 0 2 1 1 1 1 1 1 1 0 1 1 1 2 3 4 6 13 24 31 33 34 33 32 34 38 42 45 46 45 44 41 37 33 25 13 12 23 26 25 25 25 26 26 27 29 29 28 27 25 25 26
9 9 8 5 7 13 16 17 16 13 8 4 2 1 1 1 2 2 1 1 1 1 2 3 2 1 1 3 3 3 2 1 1 1 2 0 2 2 1 2 1 1 1 1 1 1 1 1 2 3 5 10 17 25 29 32 35 37 35 36 38 42 45 48 48 48 47 43 40 37 30 14 6 17 21 21 22 24 26 26 25 26 27 26 26 26 26
11 11 9 8 10 13 14 12 9 6 4 3 2 1 1 1 1 1 0 1 2 2 3 4 2 1 1 3 5 5 4 2 3 2 1 2 4 3 1 1 1 1 1 1 2 1 1 2 1 2 8 16 22 25 27 30 34 37 37 38 39 41 44 47 48 49 50 48 44 42 39 32 18 3 14 19 18 18 22 24 24 24 24 25 25 25 24
12 12 10 9 9 8 7 6 4 2 1 1 2 2 2 2 1 1 1 2 3 4 4 5 4 2 1 3 4 4 5 5 5 4 2 3 4 3 1 1 1 1 2 2 0 1 2 2 2 5 12 19 23 25 26 28 31 35 37 38 38 39 41 44 46 49 51 52 49 46 44 42 36 23 3 13 19 19 19 21 23 24 23 23 24 25 24
12 11 9 7 5 4 2 3 5 3 1 1 2 3 4 5 3 2 2 2 2 4 7 8 6 3 2 2 3 3 4 5 4 4 4 4 3 1 1 1 1 1 2 1 1 1 1 1 3 9 16 20 22 25 27 28 29 32 36 37 36 37 40 43 46 49 51 52 52 50 48 46 44 39 29 13 4 13 17 19 21 23 23 21 23 24 24
11 11 9 4 3 2 0 1 4 3 2 2 3 3 4 4 3 4 5 4 5 7 10 10 8 4 1 3 3 3 4 4 2 1 3 2 1 2 1 1 1 1 1 1 1 1 1 2 5 11 18 21 21 23 27 28 28 30 33 35 36 36 37 41 44 45 46 48 50 50 50 49 46 45 44 39 28 17 9 6 11 16 18 18 20 23 23
9 10 7 2 2 3 2 0 2 2 2 3 4 5 6 6 5 7 11 12 12 14 14 13 10 6 2 4 3 2 4 4 2 2 3 1 2 2 2 2 1 2 1 2 2 2 1 3 6 11 17 21 22 22 25 28 28 29 31 33 34 34 34 36 40 42 43 44 46 48 50 50 48 46 46 47 44 40 34 27 20 18 18 17 19 24 26
8 8 6 2 2 3 2 0 2 4 7 9 11 12 13 12 11 13 15 16 17 18 18 14 9 5 2 1 1 1 3 2 1 3 4 2 2 2 1 2 1 2 2 2 3 2 1 4 9 14 18 21 22 23 24 27 28 28 28 29 31 32 32 32 35 38 40 41 42 44 46 47 48 48 48 47 48 48 46 43 40 38 36 36 38 39 39
7 6 4 2 1 2 4 7 7 9 12 15 15 15 15 14 13 15 18 20 20 20 18 14 8 4 3 3 1 2 3 4 3 2 4 3 1 1 2 2 1 2 2 1 2 2 2 6 12 15 18 21 23 23 23 25 26 26 26 27 27 29 30 30 31 33 36 38 39 40 41 43 45 47 46 47 49 50 48 46 46 45 43 42 43 44 44
4 3 4 4 3 4 9 13 11 9 11 14 15 15 15 14 14 16 20 22 22 20 16 14 11 7 6 6 4 2 3 4 3 1 3 3 2 1 2 2 1 1 1 0 1 3 6 10 14 16 18 21 23 22 21 23 24 24 24 24 24 25 26 28 29 30 30 32 34 36 36 38 40 42 43 45 47 47 46 45 47 45 43 42 43 45 46
2 3 5 6 6 7 9 11 8 7 9 13 14 15 15 14 16 18 21 22 21 19 14 12 10 7 5 4 3 1 2 3 2 2 3 4 3 2 2 2 2 2 1 2 4 6 8 11 14 16 17 20 22 21 20 22 24 23 22 21 22 22 23 24 27 28 28 28 30 32 33 34 35 36 36 38 41 42 42 43 45 43 42 41 43 45 46
5 2 3 4 4 4 6 6 5 6 8 10 13 14 14 15 16 18 20 20 19 15 11 8 7 5 2 2 3 2 2 3 3 3 3 3 3 3 3 2 2 3 4 7 10 10 10 11 13 15 17 19 20 20 19 20 23 24 22 19 20 21 21 20 23 26 27 27 27 29 29 30 31 31 30 32 34 37 38 39 39 39 39 40 42 44 44
5 5 4 3 5 4 3 4 6 8 8 10 12 14 13 14 14 15 16 17 15 12 10 9 7 3 2 3 4 4 3 3 4 4 4 3 2 1 2 3 4 6 8 10 11 10 10 11 11 13 16 18 18 18 19 20 21 23 22 18 18 20 21 19 18 21 24 26 26 27 26 26 26 27 28 29 30 32 33 33 32 33 35 36 38 39 40
Wind_Direction
337 339 340 341 343 343 345 349 352 353 352 353 357 359 358 339 314 324 349 349 349 348 305 315 0 344 323 326 328 325 320 321 329 336 337 332 337 340 331 325 323 321 322 319 321 321 317 327 333 327 323 318 315 319 330 341 339 330 324 329 334 334 295 243 244 259 272 238 183 170 179 190 201 213 213 193 185 188 184 178 178 182 218 230 248 281 265
334 336 337 338 340 339 341 346 351 354 354 352 351 353 344 322 315 324 340 344 346 345 317 328 336 305 310 316 327 328 320 321 332 335 331 333 345 337 324 320 314 314 312 307 322 339 336 334 333 326 318 314 315 318 329 339 332 320 329 330 322 316 302 297 275 227 241 257 193 171 179 190 202 204 208 218 195 178 187 209 169 179 216 207 203 254 250
332 332 333 335 336 335 337 342 347 351 355 352 349 348 337 320 312 321 333 336 336 339 350 345 329 320 324 322 327 329 322 324 327 325 323 331 347 334 318 315 309 308 316 317 328 350 358 325 316 323 319 313 314 318 327 329 319 314 321 319 308 285 279 300 284 219 213 228 204 185 181 185 203 198 198 218 214 183 183 200 165 184 215 205 195 227 256
330 330 330 331 332 333 334 338 342 347 352 350 348 347 336 323 320 331 338 339 334 339 352 352 347 343 334 324 326 333 325 316 318 324 328 335 341 326 312 316 317 317 328 330 332 346 346 316 307 316 320 317 313 316 319 316 313 319 323 322 314 255 254 262 229 234 248 253 249 198 172 173 197 202 192 204 218 206 178 172 195 188 180 201 206 186 219
327 327 327 327 328 330 331 333 336 341 347 346 345 344 332 320 328 343 346 341 334 340 349 351 347 328 319 315 316 321 319 315 326 336 332 327 326 318 308 319 326 330 332 331 334 336 326 306 304 310 318 321 314 316 316 311 315 326 327 323 321 271 275 285 257 263 260 265 286 261 172 172 187 202 200 193 205 220 200 178 195 164 141 207 223 164 160
327 326 324 324 325 327 328 330 331 335 342 343 342 340 331 325 326 335 344 338 329 337 334 331 325 312 311 316 309 313 325 329 325 327 323 319 318 312 302 313 321 329 332 331 330 328 321 309 309 313 325 331 325 323 322 316 322 333 327 323 327 303 288 313 305 299 292 279 285 286 239 173 181 200 211 194 193 213 218 191 181 158 142 199 203 159 161
327 325 323 322 324 325 325 327 328 330 335 341 345 329 319 327 317 315 336 331 310 307 305 306 310 309 313 315 306 313 329 322 312 319 321 313 314 318 312 315 327 334 330 326 328 328 321 312 312 313 320 327 333 330 320 316 329 339 328 322 325 313 319 335 322 300 301 305 290 280 277 15 125 200 214 207 192 203 216 210 186 168 161 186 174 151 166
326 324 323 322 323 323 323 324 325 328 334 342 347 321 311 328 322 313 331 322 301 300 303 306 312 314 313 310 314 325 327 321 321 325 320 314 322 330 319 314 323 325 319 316 317 315 303 289 292 302 313 323 323 318 309 311 323 329 327 321 320 320 332 335 328 303 297 325 310 296 288 332 5 223 219 257 206 198 208 217 203 178 174 180 141 113 93
324 322 321 322 321 321 322 322 323 331 340 341 332 314 302 301 298 309 325 316 296 301 309 310 307 305 306 312 330 332 325 325 325 320 318 320 316 311 309 307 309 311 311 312 315 314 298 278 273 281 285 284 284 284 284 300 313 318 319 317 317 324 331 330 336 334 319 318 288 292 308 312 290 268 231 337 314 206 201 207 213 184 171 168 119 109 138
321 320 320 320 319 319 321 322 325 333 341 331 313 301 294 287 287 302 313 301 288 294 295 300 300 295 301 311 322 320 314 319 323 319 317 313 304 305 307 297 293 311 313 307 312 314 301 290 286 280 271 266 265 265 268 275 283 296 306 309 309 319 329 336 345 340 330 320 280 287 320 303 266 263 276 26 349 271 198 199 217 195 155 159 139 150 181
320 320 319 318 318 320 321 322 327 332 333 325 307 291 290 291 292 301 304 282 274 281 281 293 291 286 296 304 312 314 312 318 320 311 306 308 310 317 316 302 292 302 305 300 304 307 302 296 293 284 272 264 260 260 263 265 265 271 283 296 302 309 317 328 340 324 310 320 313 319 343 287 230 109 340 30 20 9 97 176 230 222 159 140 134 137 152
320 319 318 318 317 319 320 320 323 326 325 322 308 293 292 292 290 291 287 268 283 286 283 284 284 292 300 300 302 304 307 316 315 308 312 321 320 320 321 319 311 292 299 303 307 311 310 304 298 289 276 264 255 254 255 255 259 264 266 273 288 304 313 317 322 295 293 320 342 35 294 264 207 100 16 14 7 6 62 50 14 345 350 77 126 122 107
320 319 318 318 317 318 318 316 317 318 316 311 298 290 290 289 285 282 273 268 276 274 280 285 285 288 291 292 296 301 305 313 317 317 322 320 313 315 325 331 312 304 309 313 316 322 320 306 303 301 287 271 256 252 250 246 248 256 262 267 275 289 304 314 312 297 300 336 349 179 247 280 249 75 33 11 345 315 63 51 24 9 0 1 101 124 113
321 321 319 319 318 317 315 314 315 313 308 301 291 287 286 282 277 275 269 261 258 270 285 296 292 287 291 297 303 305 308 316 322 324 320 304 298 313 329 330 319 317 320 320 320 328 326 303 309 311 293 275 258 249 244 238 235 243 254 260 264 273 290 322 320 317 351 340 280 225 274 312 12 43 13 349 318 304 86 82 25 9 9 0 350 105 110
323 322 320 319 318 317 316 315 314 311 306 298 288 283 281 279 276 273 262 250 257 277 265 258 270 282 295 304 307 309 313 322 324 317 314 315 317 326 336 337 331 326 323 323 325 325 315 317 323 318 313 313 302 273 245 227 220 226 236 243 251 257 262 297 309 318 352 332 301 276 285 298 2 350 342 330 312 308 93 97 36 3 7 4 354 11 74
324 322 320 320 318 317 317 315 313 312 308 299 290 283 280 278 278 276 263 247 244 261 228 239 268 285 295 298 299 304 306 308 316 313 317 330 329 329 333 337 339 336 329 326 327 306 302 322 326 313 312 314 312 311 312 301 243 217 215 218 233 247 249 264 281 291 315 315 348 340 288 74 356 341 337 328 315 308 62 87 36 350 355 4 7 16 32
323 322 321 322 320 318 318 316 314 311 305 298 292 286 284 280 277 277 266 249 239 250 258 267 279 285 290 292 291 297 298 297 310 314 306 317 320 326 331 334 340 348 344 339 334 323 319 322 329 328 314 306 310 320 336 339 340 303 217 204 218 242 251 255 250 268 302 295 323 342 107 21 345 339 338 327 315 309 62 77 26 332 348 5 14 21 26
324 324 325 327 325 322 320 317 315 310 305 301 294 288 287 284 279 275 264 249 243 257 271 278 278 270 268 274 277 283 293 303 315 325 305 299 306 323 327 328 340 354 351 351 356 330 335 349 342 330 312 313 319 325 334 337 345 348 331 223 206 242 251 252 246 294 319 318 334 343 123 2 341 342 347 338 326 335 71 74 287 300 343 16 20 22 26
327 328 330 331 328 324 321 318 317 314 309 307 297 289 287 283 280 279 263 249 243 254 272 280 276 267 268 273 273 275 283 290 292 300 308 297 317 326 324 323 346 351 347 359 8 306 340 35 8 313 303 329 334 327 326 325 326 341 342 338 4 345 281 316 309 293 311 349 357 338 69 356 344 348 0 2 3 65 61 9 304 324 7 27 22 22 25
330 331 332 331 327 324 322 318 318 315 311 311 300 289 289 286 279 276 266 255 252 262 274 281 279 273 271 267 264 267 277 285 284 289 301 300 322 331 331 337 359 349 346 3 354 333 8 17 356 337 318 315 317 321 325 317 323 354 4 359 13 13 335 333 347 331 336 41 13 13 64 344 343 351 12 20 31 120 290 343 2 13 25 28 22 22 24
332 332 332 331 328 325 323 320 319 315 312 311 299 288 290 290 284 278 270 260 257 263 277 292 293 289 286 278 271 269 269 271 273 285 302 302 314 333 331 320 353 0 352 338 338 351 15 358 350 5 299 270 281 328 332 324 333 356 359 1 23 19 0 355 9 2 10 52 39 38 245 307 347 17 37 7 7 44 67 43 24 20 23 24 21 19 20
333 333 333 333 330 327 325 323 320 315 310 304 293 286 287 289 290 289 279 260 252 257 270 282 288 289 284 278 276 271 264 263 264 272 290 298 304 310 296 302 351 28 265 325 341 343 349 340 325 332 312 298 319 321 324 339 350 347 350 360 12 0 359 170 217 330 24 281 265 270 273 302 354 36 45 9 8 25 47 49 36 24 21 24 23 18 16
336 336 335 334 332 330 327 323 318 312 306 298 287 280 281 284 288 285 277 264 260 268 282 291 293 291 281 275 278 273 262 261 262 263 272 282 294 302 295 303 348 337 310 345 347 313 323 324 320 328 321 329 338 320 327 3 1 338 353 358 338 353 12 12 289 300 15 284 248 248 322 337 352 12 24 19 14 17 34 45 41 29 24 25 22 17 16
337 336 335 335 334 332 330 329 325 318 311 302 288 280 278 281 281 275 268 259 257 274 294 296 284 285 290 295 301 288 264 256 257 259 257 253 266 288 296 318 338 328 323 336 333 320 316 310 310 317 317 341 350 329 328 0 14 348 352 340 319 4 18 7 321 330 11 332 295 342 341 328 330 344 351 356 9 27 37 37 31 26 28 29 24 18 14
338 337 337 336 337 342 346 346 342 336 333 327 314 297 286 272 258 254 256 246 239 257 299 299 286 295 307 302 293 280 267 259 253 251 243 238 247 263 280 308 325 323 320 327 331 329 324 316 318 320 326 0 13 355 328 341 344 335 341 326 303 346 2 357 326 334 345 307 310 323 316 304 307 324 329 338 4 33 32 19 18 24 23 21 22 18 14
339 339 340 343 350 359 359 355 355 358 1 7 23 79 110 113 155 244 244 237 238 247 259 284 305 327 331 309 292 282 274 268 258 252 250 246 247 256 275 297 311 317 318 321 327 327 319 306 312 317 326 359 3 338 294 305 313 312 319 308 300 311 329 327 303 317 317 287 312 333 328 316 322 334 342 349 354 3 11 4 6 17 16 9 13 12 8
343 344 347 356 4 5 1 2 8 17 25 34 53 76 86 87 70 290 251 221 227 258 268 282 307 322 324 312 304 295 278 268 260 256 251 249 257 270 289 302 311 319 321 322 327 327 318 310 323 330 342 348 339 313 289 304 309 295 286 301 305 312 331 339 331 329 317 320 351 359 354 325 317 326 337 342 339 339 346 345 345 358 4 3 6 4 354
348 350 355 3 5 5 9 13 16 23 31 35 38 50 61 69 59 7 321 223 224 254 294 296 301 315 329 336 343 344 296 260 253 258 254 261 278 287 297 305 312 320 324 328 334 332 324 329 330 328 346 350 337 317 316 318 307 268 281 336 1 10 7 359 351 329 306 321 337 340 333 313 310 318 325 327 324 323 328 332 336 342 342 345 353 351 339
353 355 359 3 8 17 25 25 23 26 29 20 5 25 61 58 22 9 5 230 228 253 289 299 306 323 346 350 358 14 17 235 237 258 264 279 292 297 304 311 322 333 334 335 338 333 330 335 328 327 358 3 345 317 323 326 310 295 323 352 7 359 345 342 342 326 311 316 323 323 316 305 303 309 315 314 308 304 306 311 318 323 324 326 330 328 327
356 0 3 9 22 36 40 42 41 39 39 34 17 348 124 34 360 357 356 281 237 259 294 308 319 333 347 1 18 29 25 356 292 277 272 281 291 296 308 316 325 335 337 337 340 338 339 339 326 328 356 5 356 315 313 323 308 300 317 335 344 339 331 328 326 317 309 308 309 309 304 298 297 300 302 299 295 295 295 295 297 302 306 311 313 312 315
357 7 13 21 37 47 48 53 52 44 43 42 28 346 304 323 330 334 340 332 221 320 329 302 294 302 335 34 40 26 10 354 336 313 302 312 311 293 295 308 319 334 341 343 346 344 342 341 329 325 344 356 354 324 306 309 296 294 314 326 329 324 318 315 312 308 304 303 304 303 297 290 289 291 290 287 287 290 291 289 289 290 294 300 306 307 305
356 12 26 31 38 43 46 46 43 41 45 45 36 19 13 4 332 318 324 11 85 27 346 316 293 298 357 59 33 6 357 355 355 334 315 320 319 304 307 333 341 339 339 342 349 349 342 340 335 322 322 331 331 307 289 285 275 291 311 316 315 311 308 307 306 304 302 299 298 298 291 284 280 279 279 280 283 287 287 286 284 284 284 286 290 295 296
354 9 27 35 39 42 43 39 34 32 34 34 26 19 17 14 4 352 349 110 80 50 327 306 312 322 353 10 5 8 11 11 10 358 327 326 331 329 358 18 6 346 347 354 359 341 330 331 327 317 319 328 328 301 274 266 281 302 310 311 310 310 310 308 304 300 297 294 286 272 268 272 273 273 274 273 273 275 281 285 286 285 283 281 282 285 287
353 359 6 18 27 33 36 37 34 27 24 19 359 356 4 12 15 25 107 125 100 88 233 289 334 345 349 338 3 10 12 11 12 18 14 9 19 57 87 36 18 8 3 8 7 339 330 330 325 323 331 339 335 313 282 290 304 311 312 312 312 312 310 307 304 300 296 293 284 270 266 268 270 269 268 266 264 264 270 277 282 283 283 282 282 282 283
359 355 346 348 357 6 16 24 26 19 16 350 305 323 346 4 12 24 74 108 111 55 51 40 340 332 353 39 57 3 4 14 27 31 47 54 53 70 85 60 41 38 6 3 11 354 335 335 335 333 334 337 334 317 273 297 306 309 308 308 312 314 308 302 302 301 297 289 280 271 267 266 263 259 257 257 257 257 259 264 270 275 277 279 281 281 281
7 357 347 341 340 341 348 359 4 1 346 311 305 319 335 355 2 13 58 81 80 67 24 316 277 335 1 13 357 344 353 32 73 48 59 75 64 65 79 79 77 92 54 26 29 326 309 318 335 338 340 343 318 279 284 291 290 292 299 307 314 318 315 308 308 309 300 282 270 265 259 254 252 250 249 250 250 249 249 252 257 263 267 269 272 276 278
4 357 354 346 337 335 339 341 343 339 326 316 318 321 326 350 354 348 23 55 65 72 46 294 313 22 332 284 263 324 337 70 125 69 55 92 101 90 91 94 128 147 121 47 342 284 270 285 329 326 259 284 296 304 314 313 298 287 308 330 336 337 335 331 332 334 323 284 260 255 250 245 245 245 243 243 244 242 240 240 243 249 255 258 262 266 270
356 346 350 351 339 332 328 321 323 325 323 322 325 324 329 20 16 337 343 17 29 19 10 350 353 316 294 281 19 29 350 158 148 139 103 114 141 153 137 121 169 184 193 309 327 306 259 219 295 285 257 295 322 337 345 347 339 328 340 354 356 354 351 351 354 357 352 326 278 257 245 238 238 238 238 237 238 237 234 233 234 238 243 248 253 258 262
352 340 342 353 339 320 318 321 322 321 320 325 338 352 353 6 11 335 343 301 272 307 337 317 305 312 306 321 65 51 356 330 105 125 137 146 167 179 169 169 189 194 235 313 313 340 344 270 246 305 313 332 349 355 357 358 359 0 1 4 6 6 4 3 5 7 9 10 3 328 264 241 234 233 233 232 233 235 234 232 230 230 234 238 241 247 253
350 335 329 331 318 311 313 316 317 316 315 323 343 340 274 271 95 40 13 337 272 272 277 280 296 306 310 334 28 20 349 350 15 21 25 132 189 179 145 171 211 172 52 15 260 124 49 293 295 352 356 344 353 359 359 0 4 8 9 11 14 13 12 12 13 15 19 24 26 21 355 262 238 234 231 230 231 232 231 229 227 226 227 230 232 237 243
346 329 318 305 298 302 306 309 311 309 301 281 250 247 239 128 90 47 7 323 311 304 284 285 292 284 312 323 301 274 286 294 247 293 340 306 218 207 148 162 202 142 83 356 304 154 112 309 322 8 356 344 351 359 3 5 7 8 11 16 18 18 17 18 18 19 22 25 26 25 26 23 250 234 234 235 234 232 229 227 224 222 223 224 227 232 236
335 327 320 304 291 293 298 301 300 295 280 264 260 292 46 60 41 10 290 317 353 338 287 271 265 203 282 298 280 272 286 278 226 235 267 199 205 219 196 164 156 102 151 273 300 344 6 344 6 2 344 348 358 3 5 8 10 11 13 18 21 21 22 22 21 22 25 26 26 26 30 36 38 324 241 237 234 229 226 225 224 223 223 223 225 230 235
327 324 321 309 291 282 285 294 293 274 262 324 338 352 4 13 23 7 314 310 333 339 308 271 249 216 250 271 253 252 273 266 235 232 244 208 196 204 212 124 81 115 187 203 233 26 1 357 22 352 341 349 2 8 7 8 12 14 16 20 23 24 25 26 26 27 28 28 28 29 32 36 41 44 34 234 231 226 225 224 222 221 222 223 224 228 231
331 325 323 317 297 265 249 328 334 332 7 15 349 351 3 6 1 349 339 303 288 326 324 299 280 283 311 276 245 239 256 253 234 229 234 216 187 164 34 37 50 108 150 147 66 38 19 4 5 354 347 350 1 9 10 11 13 15 17 20 23 26 28 29 30 31 31 30 29 30 32 35 41 47 52 55 190 213 220 227 226 222 222 224 224 223 223
333 321 315 312 308 301 271 348 334 338 24 21 354 357 10 5 353 356 358 335 298 312 323 314 302 302 220 187 213 254 247 222 198 247 253 223 96 52 49 58 28 19 60 54 10 358 9 352 351 353 352 351 358 8 13 13 14 16 18 21 23 27 31 32 33 34 34 33 31 32 33 34 37 43 48 52 60 82 118 177 211 211 210 211 209 203 199
323 312 309 294 299 321 336 331 309 327 24 33 17 5 2 8 23 19 4 347 332 331 332 322 307 300 227 171 176 250 246 213 179 332 310 314 77 78 119 124 50 350 6 34 12 357 348 333 341 351 355 356 359 7 14 16 16 17 21 24 26 28 32 35 36 37 38 38 37 36 35 35 37 42 46 49 55 65 75 82 94 114 124 124 129 137 139
318 314 316 306 295 309 313 355 23 24 26 27 25 15 4 9 23 19 2 347 338 337 338 332 319 305 288 213 164 319 311 313 19 356 336 348 86 79 70 88 55 4 10 18 1 342 308 333 348 356 2 5 7 9 12 15 17 18 20 24 28 31 34 36 37 38 39 40 41 41 39 37 38 41 45 48 53 60 66 72 78 85 89 90 94 103 109
327 338 335 300 279 356 350 349 14 39 35 27 25 16 4 7 18 12 357 346 338 334 338 346 348 332 319 334 22 68 12 360 12 12 355 358 67 70 27 34 53 36 29 4 335 330 341 357 5 10 13 14 14 12 11 14 17 18 19 21 26 32 36 38 37 37 39 41 43 45 44 42 42 42 43 47 52 56 60 66 72 76 79 82 86 89 93
315 27 14 336 344 24 3 351 1 28 32 26 23 10 1 10 21 9 355 347 340 337 347 6 16 8 348 345 358 55 43 10 1 11 12 13 23 26 17 10 1 11 24 262 338 22 25 16 14 18 19 17 15 13 12 13 14 15 17 22 25 29 37 41 40 39 39 41 44 47 48 47 47 46 44 47 51 54 57 63 68 69 70 73 78 80 82
278 102 57 17 2 2 356 354 1 10 15 22 19 2 356 13 21 5 352 349 348 350 3 24 29 24 9 352 348 31 51 22 18 37 38 34 27 12 11 17 359 346 322 316 346 21 42 35 23 18 15 12 11 11 12 15 15 13 16 23 27 27 33 41 44 44 43 44 45 48 50 51 52 51 49 50 53 55 56 60 64 65 64 66 72 75 76
341 24 76 78 55 11 360 12 16 355 360 19 16 358 358 17 19 2 354 358 0 2 12 22 17 11 19 12 358 357 16 36 52 48 35 32 26 2 352 347 335 331 337 342 350 8 32 39 31 22 14 10 10 10 11 15 17 14 13 22 31 31 30 35 41 45 47 47 47 48 50 52 53 55 54 54 55 56 56 57 60 62 62 63 66 68 71
341 336 341 42 56 42 49 61 32 0 1 22 16 1 6 22 16 1 3 12 13 9 15 18 12 10 29 17 7 3 5 20 43 44 32 36 57 35 332 324 339 357 1 355 351 2 20 26 25 20 14 11 12 15 14 13 14 13 13 21 34 36 34 34 37 41 46 49 49 49 49 50 52 55 56 55 56 57 57 57 58 60 62 64 64 66 69